Weather History for Amritsar, India

Change the Weather History Date:

Friday, February 28, 2014

  Actual Average Record
Temperature  
Mean Temperature 58 °F -  
Max Temperature 69 °F 71 °F 80 °F (2003)
Min Temperature 47 °F 51 °F 44 °F (2012)
Degree Days  
Heating Degree Days 7    
Growing Degree Days 8 (Base 50)    
Moisture  
Dew Point 52 °F    
Average Humidity 79    
Maximum Humidity 100    
Minimum Humidity 46    
Precipitation  
Precipitation 0.01 in - - ()
Sea Level Pressure  
Sea Level Pressure 29.95 in    
Wind  
Wind Speed 2 mph ()    
Max Wind Speed 8 mph    
Max Gust Speed -    
Visibility 2.5 miles    
Events Rain    
Averages and records for this station are not official NWS values.
T = Trace of Precipitation, MM = Missing Value Source: Averaged Metar Reports

Daily Weather History Graph

Daily Weather History Graph

Search for Another Location

Airport:

Trip Planner

Search our weather history database for the weather conditions in past years. The results will help you decide how hot, cold, wet, or windy it might be!

Date:

Astronomy

Feb. 28, 2014 Rise Set
Actual Time 6:59 AM IST 6:27 PM IST
Civil Twilight 6:35 AM IST 6:52 PM IST
Nautical Twilight 6:06 AM IST 7:20 PM IST
Astronomical Twilight 5:38 AM IST 7:48 PM IST
Moon 5:52 AM IST (2/28) 5:32 PM IST (2/28)
Length of Visible Light 12h 17m
Length of Day
11h 28m
Waning Crescent, 2% of the Moon is Illuminated
Feb 28
Waning Crescent
Mar 1
New
Mar 8
First Quarter
Mar 16
Full
Mar 24
Last Quarter

Hourly Weather History & Observations

Time (IST) Temp. Dew Point Humidity Pressure Visibility Wind Dir Wind Speed Gust Speed Precip Events Conditions
12:00 AM 55.4 °F 51.8 °F 88% 29.95 in 1.9 mi Calm Calm - N/A   Scattered Clouds
12:30 AM 53.6 °F 51.8 °F 94% 29.95 in 1.6 mi Variable 2.3 mph - N/A   Scattered Clouds
1:00 AM 55.4 °F 53.6 °F 94% 29.95 in 1.6 mi WNW 5.8 mph - N/A   Scattered Clouds
1:30 AM 55.4 °F 53.6 °F 94% 29.95 in 1.6 mi WNW 8.1 mph - N/A   Scattered Clouds
2:00 AM 55.4 °F 53.6 °F 94% 29.95 in 1.6 mi Calm Calm - N/A   Scattered Clouds
2:30 AM 53.6 °F 51.8 °F 94% 29.95 in 1.6 mi Variable 2.3 mph - N/A   Scattered Clouds
3:00 AM 51.8 °F 51.8 °F 100% 29.92 in 1.6 mi ENE 4.6 mph - N/A   Scattered Clouds
3:30 AM 51.8 °F 50.0 °F 94% 29.92 in 1.6 mi Calm Calm - N/A   Scattered Clouds
4:00 AM 51.8 °F 50.0 °F 94% 29.92 in 1.6 mi Calm Calm - N/A   Scattered Clouds
4:30 AM 51.8 °F 50.0 °F 94% 29.92 in 1.6 mi Calm Calm - N/A   Scattered Clouds
5:00 AM 51.8 °F 50.0 °F 94% 29.92 in 1.6 mi Calm Calm - N/A   Scattered Clouds
5:30 AM 50 °F 49 °F 96% 29.93 in 1 mi Calm Calm - -   Mist
5:30 AM 50.0 °F 48.2 °F 94% 29.92 in 1.6 mi Calm Calm - N/A   Scattered Clouds
6:00 AM 50.0 °F 48.2 °F 94% 29.92 in 1.6 mi Calm Calm - N/A   Scattered Clouds
6:30 AM 48.2 °F 48.2 °F 100% 29.92 in 1.2 mi Calm Calm - N/A   Scattered Clouds
7:00 AM 48.2 °F 48.2 °F 100% 29.92 in 1.2 mi Calm Calm - N/A   Overcast
7:30 AM 50.0 °F 48.2 °F 94% 29.95 in 1.2 mi Calm Calm - N/A   Scattered Clouds
8:00 AM 50.0 °F 50.0 °F 100% 29.95 in 0.6 mi Calm Calm - N/A   Mostly Cloudy
8:30 AM 55 °F 53 °F 91% 29.96 in 1 mi Calm Calm - -   Mist
8:30 AM 55.4 °F 53.6 °F 94% 29.95 in 1.6 mi Calm Calm - N/A   Mostly Cloudy
9:00 AM 57.2 °F 53.6 °F 88% 29.98 in 1.6 mi Calm Calm - N/A   Mostly Cloudy
9:30 AM 64.4 °F 51.8 °F 64% 29.98 in 2.5 mi Variable 3.5 mph - N/A   Haze
10:00 AM 62.6 °F 51.8 °F 68% 29.98 in 2.5 mi ESE 4.6 mph - N/A   Haze
10:30 AM 64.4 °F 50.0 °F 59% 30.01 in 2.5 mi Variable 1.2 mph - N/A   Haze
11:00 AM 64.4 °F 51.8 °F 64% 30.01 in 4.3 mi SSE 5.8 mph - N/A   Scattered Clouds
11:30 AM 66 °F 51 °F 48% 29.99 in 2 mi ESE 6.9 mph - -   Partly Cloudy
11:30 AM 66.2 °F 50.0 °F 56% 30.01 in 4.3 mi ESE 6.9 mph - N/A   Mostly Cloudy
12:00 PM 68.0 °F 51.8 °F 56% 30.01 in 4.3 mi Variable 3.5 mph - N/A   Mostly Cloudy
12:30 PM 66.2 °F 50.0 °F 56% 30.01 in 4.3 mi SSE 4.6 mph - N/A   Mostly Cloudy
1:00 PM 68.0 °F 51.8 °F 56% 29.98 in 4.3 mi South 3.5 mph - N/A   Mostly Cloudy
1:30 PM 68.0 °F 51.8 °F 56% 29.98 in 4.3 mi Variable 4.6 mph - N/A   Mostly Cloudy
2:00 PM 68.0 °F 51.8 °F 56% 29.95 in 4.3 mi South 5.8 mph - N/A   Mostly Cloudy
2:30 PM 70 °F 54 °F 46% 29.92 in 2 mi 3.5 mph - -   Partly Cloudy
2:30 PM 69.8 °F 53.6 °F 56% 29.95 in 4.3 mi Variable 3.5 mph - N/A   Mostly Cloudy
3:00 PM 68.0 °F 51.8 °F 56% 29.92 in 4.3 mi South 4.6 mph - N/A   Mostly Cloudy
3:30 PM 66.2 °F 51.8 °F 60% 29.92 in 4.3 mi SSE 6.9 mph - N/A   Mostly Cloudy
4:00 PM 66.2 °F 51.8 °F 60% 29.92 in 4.3 mi South 3.5 mph - N/A   Mostly Cloudy
4:30 PM 66.2 °F 50.0 °F 56% 29.92 in 4.3 mi South 4.6 mph - N/A   Overcast
5:00 PM 64.4 °F 55.4 °F 73% 29.92 in 4.3 mi West 6.9 mph - N/A   Mostly Cloudy
5:30 PM 64 °F 54 °F 63% 29.91 in 2 mi NW 6.9 mph - -   Scattered Clouds
7:30 PM 57.2 °F 51.8 °F 82% 29.92 in 3.1 mi Variable 5.8 mph - N/A   Drizzle
8:00 PM 57.2 °F 53.6 °F 88% 29.92 in 3.1 mi Variable 5.8 mph - N/A   Haze
8:30 PM 59 °F 53 °F 76% 29.93 in 2 mi NE 1.2 mph - - Rain Light Drizzle
8:30 PM 59.0 °F 53.6 °F 82% 29.92 in 2.8 mi Variable 1.2 mph - N/A   Light Drizzle
9:00 PM 57.2 °F 53.6 °F 88% 29.95 in 2.8 mi Variable 1.2 mph - N/A   Light Drizzle
9:30 PM 57.2 °F 53.6 °F 88% 29.95 in 2.8 mi Calm Calm - N/A   Light Drizzle
10:00 PM 57.2 °F 53.6 °F 88% 29.92 in 2.8 mi Calm Calm - N/A   Overcast
10:30 PM 57.2 °F 53.6 °F 88% 29.92 in 2.8 mi Calm Calm - N/A   Overcast
11:00 PM 57.2 °F 53.6 °F 88% 29.95 in 2.8 mi Calm Calm - N/A   Overcast
11:30 PM 57 °F 54 °F 88% 29.94 in 2 mi Calm Calm - -   Mist
11:30 PM 57.2 °F 55.4 °F 94% 29.95 in 2.8 mi Calm Calm - N/A   Overcast